sat.trackr.live / text

‹ back to catalog

STARLINK-35483

NORAD 66252 · 2025-245U

PAYLOAD ACTIVE UNKNOWN

§ Identity

Operator
Country
US
Launch date
2025-10-29
Launch site
AFETR
Launch vehicle
Mass (kg)
RCS (m²)

Purposes: comms

External: N2YO · Heavens-Above · Gunter

§ Orbital elements

Epoch: 2026-09-20T21:44:44.328768Z

Period
93.85 min
Inclination
53.1586°
Eccentricity
0.0001351
Mean motion
15.34390929 rev/d
Perigee alt
461.8 km
Apogee alt
463.7 km
Semi-major
6,840.9 km
B*
4.3033e-4
RAAN
95.8149°
Arg perigee
102.3502°
Mean anomaly
257.7652°
Rev number
5,111

§ Raw data

STARLINK-354831 66252U 25245U   26263.90606862  .00014187  00000+0  43033-3 0  99912 66252  53.1586  95.8149 0001351 102.3502 257.7652 15.34390929 51117

JSON: /api/v1/satellites/66252 · /tle

For live sub-satellite position, see the globe view (requires WebGL).

§ Visibility from observer

Set your observer location to see the next 7 days of passes ≥ 10°. The values pass through the URL so the page stays shareable.

No JS? Fill the form by hand. The geolocation button needs JavaScript.